Theta_e
318 317 317 317 317 317 318 316 310 309 309 309 309 308 308 308 308 308 308 308 309 309 309 309 310 311 313 315 313 314 310 312 315 317 318 319 319 320 322 322 322 322 321 323 322 321 320
320 319 317 317 317 316 316 316 311 309 309 309 309 308 308 308 308 308 308 308 309 309 309 309 310 312 316 313 313 313 311 313 315 316 317 319 320 318 319 318 320 320 320 321 320 320 319
322 321 320 319 317 316 316 315 309 309 309 309 309 309 309 309 308 308 308 309 309 310 310 309 310 311 315 314 312 312 312 313 314 316 317 320 320 319 317 317 317 319 321 319 319 319 319
319 319 319 319 319 320 320 315 309 308 308 308 309 309 309 309 308 308 308 308 309 310 310 309 310 312 311 314 311 312 312 312 313 314 317 319 319 319 320 316 314 319 317 318 316 317 317
316 316 316 317 317 317 317 318 318 314 308 307 307 308 308 308 308 308 308 308 309 309 309 309 311 316 315 311 310 311 311 312 313 315 317 318 318 318 317 315 314 313 314 315 315 315 317
314 314 314 315 315 315 316 316 318 316 311 308 307 307 307 307 307 308 308 310 311 310 311 315 316 311 311 311 311 311 311 312 314 315 316 316 314 316 313 314 316 314 314 313 313 315 317
311 311 312 312 312 312 312 314 316 318 318 318 313 308 308 308 308 308 313 317 313 314 313 309 312 308 311 312 312 312 312 313 314 315 316 315 314 315 315 314 312 312 313 313 313 314 317
311 311 310 310 310 309 307 306 309 313 316 318 319 315 309 309 308 309 313 316 314 314 314 313 312 314 315 313 310 310 313 312 314 315 315 316 315 313 314 315 316 316 315 314 313 314 316
310 310 310 310 310 310 309 306 300 302 307 313 317 319 314 308 309 313 313 316 316 315 311 311 314 313 313 313 311 310 311 312 314 314 315 315 315 316 316 315 317 316 316 314 314 315 315
310 310 310 310 310 310 308 307 303 301 299 300 307 317 319 309 314 312 315 316 316 315 312 315 315 314 313 312 313 312 311 312 313 314 313 315 315 316 316 317 316 316 316 317 317 317 319
310 310 310 310 309 308 306 306 305 303 300 299 299 307 317 312 308 315 318 319 316 314 314 316 314 313 312 313 312 315 311 315 314 315 315 315 317 317 318 316 316 318 317 317 318 317 316
311 310 310 309 309 307 304 304 305 303 302 300 300 300 310 318 311 318 320 319 314 313 316 317 313 313 313 313 312 315 314 313 313 315 313 313 314 316 316 317 316 316 317 317 316 314 318
310 310 309 309 309 307 304 303 304 303 302 301 303 301 308 319 315 312 318 312 313 315 315 317 317 315 312 313 313 314 314 314 311 313 312 311 313 314 314 314 316 316 315 318 318 319 321
309 309 309 308 306 305 304 302 303 304 303 302 308 311 320 318 318 313 315 311 317 316 318 319 319 319 314 313 313 314 315 314 313 311 312 314 316 313 313 314 315 316 316 319 320 318 318
309 309 308 306 304 304 304 303 302 304 304 307 312 317 318 317 313 316 308 313 315 318 316 317 317 318 316 316 317 316 314 314 314 312 314 314 314 313 314 315 315 315 316 316 316 317 314
308 308 307 306 303 302 302 302 300 303 305 309 318 318 317 318 314 314 309 315 316 315 315 316 320 318 317 317 318 316 317 316 322 321 320 315 317 316 315 315 315 315 314 317 313 319 321
307 307 307 307 305 304 302 302 301 302 305 310 313 313 315 317 316 309 313 314 316 315 310 315 316 318 319 316 317 318 318 319 322 321 320 321 318 322 317 318 319 318 316 315 315 316 320
306 306 306 307 305 304 304 302 302 303 303 307 306 312 310 315 312 307 313 312 313 311 305 308 311 318 317 312 316 319 320 319 311 316 320 320 324 325 323 320 319 318 316 316 320 322 317
306 306 306 306 303 303 304 303 301 304 307 307 303 303 307 312 309 308 304 304 307 304 304 307 308 308 306 311 308 315 307 311 308 307 314 317 320 319 317 317 314 315 313 314 313 316 321
305 305 306 306 304 302 302 303 302 301 305 307 300 300 299 299 299 302 304 303 305 303 304 304 304 306 305 306 306 306 305 307 306 307 310 312 316 316 317 318 315 315 314 313 313 315 313
305 305 305 306 304 303 304 303 303 301 303 305 299 303 302 300 300 302 303 303 303 304 304 303 304 305 305 305 305 304 305 305 307 307 310 311 310 309 309 308 309 309 313 313 312 312 313
305 305 305 305 305 303 302 303 303 303 303 304 301 302 300 300 300 301 302 301 304 306 306 305 304 305 304 304 305 306 305 305 306 305 306 307 309 308 307 306 307 308 308 308 311 309 309
305 305 305 305 305 303 302 302 303 303 303 304 304 303 299 300 300 301 301 303 305 302 302 303 304 304 305 304 304 303 303 303 304 305 305 305 305 305 307 306 306 308 306 305 306 307 308
304 304 304 304 304 303 303 302 301 303 304 304 305 303 300 300 302 303 304 304 303 302 302 303 303 303 303 302 302 302 301 303 303 304 303 304 305 307 309 308 310 307 305 307 309 309 312
304 304 304 304 304 303 302 302 302 301 301 303 304 303 299 300 300 301 301 301 301 301 302 302 302 301 301 302 304 304 303 301 301 302 302 302 304 307 305 306 306 306 307 308 309 311 313
304 304 304 304 304 303 302 302 302 302 302 300 301 304 303 304 300 300 302 302 302 302 302 302 301 301 300 304 307 305 305 302 303 303 303 303 304 305 305 307 307 306 304 305 306 310 308
303 303 303 303 303 303 302 302 303 302 302 303 301 303 302 303 300 300 301 300 301 301 302 301 300 301 302 301 303 303 304 303 306 304 303 302 302 304 303 303 304 303 305 306 307 306 304
303 302 302 303 302 303 302 302 302 302 301 303 303 302 301 300 299 299 299 299 299 300 302 299 300 299 300 298 301 300 305 302 303 301 303 302 300 301 300 300 303 305 304 306 305 306 306
302 302 302 301 302 302 302 301 302 303 303 303 302 301 301 301 300 300 300 300 300 300 300 301 301 301 302 303 302 301 301 303 303 303 300 303 303 303 302 304 302 303 303 304 304 305 303
Wind_Speed
19 17 16 12 9 8 6 6 8 8 9 8 8 7 6 6 5 4 3 3 3 4 5 6 8 10 3 2 7 3 2 4 3 2 1 2 1 2 3 3 1 3 3 3 3 4 3
23 22 19 17 14 11 9 7 5 6 6 7 7 7 7 7 6 6 5 5 5 5 6 7 8 10 2 3 1 2 3 4 4 2 0 1 2 3 3 4 4 3 5 4 5 4 4
22 23 23 23 20 17 14 10 5 3 3 3 3 4 5 5 6 6 5 5 5 6 6 6 6 7 0 10 3 3 3 2 3 3 1 1 0 1 1 4 4 1 3 4 5 3 5
20 21 20 21 21 21 20 19 12 5 3 2 3 3 3 4 5 5 6 6 6 6 6 6 6 3 6 3 4 7 5 5 4 4 3 4 1 1 2 5 6 0 2 2 4 6 6
19 20 20 20 19 19 19 19 18 15 8 5 4 4 5 5 6 7 8 8 6 5 6 5 2 3 8 4 4 9 9 3 3 3 3 4 1 1 1 4 5 4 4 7 8 10 4
19 20 21 22 22 21 20 18 17 16 13 9 6 4 5 6 7 9 10 8 3 3 2 1 1 3 4 2 3 2 8 3 0 1 4 2 4 0 2 3 8 7 6 5 6 3 4
20 21 21 21 21 20 19 18 17 17 16 14 12 8 6 6 7 8 9 2 5 3 1 6 3 3 2 1 4 4 5 4 2 5 3 2 2 11 14 11 3 4 4 6 5 6 8
21 21 22 22 23 23 21 18 16 15 15 15 14 12 9 7 7 7 4 4 3 3 6 7 7 5 9 4 3 2 6 4 3 5 2 3 8 9 3 6 6 5 6 9 8 8 8
22 23 23 24 24 25 24 23 20 16 14 14 14 14 12 8 3 2 3 3 1 2 1 6 4 4 5 10 4 4 8 3 4 5 7 7 8 2 6 7 6 12 14 8 13 7 5
21 22 23 24 24 24 26 26 25 21 17 15 14 14 15 8 2 1 2 4 2 1 4 4 1 2 2 4 3 4 16 7 2 6 5 6 12 16 6 6 12 15 8 13 12 3 9
21 22 23 24 25 25 27 27 29 25 21 16 12 12 11 7 3 2 5 7 4 1 4 0 1 1 1 4 3 1 5 2 6 4 5 9 4 5 7 15 6 7 7 9 7 6 2
21 22 23 24 25 27 29 29 29 26 23 16 12 10 8 5 4 4 9 7 1 5 4 2 2 3 2 2 3 2 1 1 1 4 5 14 4 5 8 4 9 3 3 1 3 4 7
21 22 24 25 26 28 30 31 32 30 25 15 11 5 4 4 1 8 8 3 5 3 5 4 5 4 1 3 3 3 3 3 4 3 5 5 6 6 10 13 3 4 5 4 4 2 15
23 24 26 27 30 32 33 34 36 36 26 19 8 7 10 10 4 6 3 5 1 3 5 4 6 4 4 3 3 3 1 3 6 4 3 6 12 7 3 13 11 11 13 9 6 7 15
22 23 25 27 30 31 33 35 36 38 29 15 9 12 15 15 9 4 5 4 1 4 6 8 8 4 3 2 6 8 2 4 4 3 4 6 7 7 3 5 7 5 7 15 11 21 5
21 23 25 27 29 31 31 34 33 35 29 11 5 6 17 14 9 5 5 1 3 3 5 3 2 4 4 7 7 9 2 3 6 7 5 6 16 7 6 3 3 6 4 3 2 9 21
19 20 22 25 28 30 31 32 34 33 30 8 4 4 14 14 6 5 3 1 3 3 8 6 3 5 2 4 3 3 6 4 8 10 5 5 5 11 5 3 13 10 6 4 4 7 17
18 19 21 22 25 27 29 29 31 33 30 11 4 3 15 13 4 2 3 5 5 5 6 4 3 2 2 5 4 5 7 2 7 9 6 6 7 17 24 20 16 16 9 3 4 15 6
17 18 19 20 23 25 28 30 30 31 30 6 3 1 11 7 4 3 5 5 3 5 4 5 4 6 5 3 5 4 6 7 8 11 4 3 2 9 17 7 7 6 11 15 15 7 14
15 17 18 19 21 23 26 28 29 26 24 6 3 3 4 5 3 5 3 4 5 3 2 3 4 4 5 1 4 6 11 6 11 12 20 13 6 13 16 19 15 25 26 22 14 8 14
12 13 15 17 20 22 24 26 28 26 19 5 4 1 2 4 4 2 2 2 3 4 4 4 5 4 3 4 10 8 14 16 6 18 6 4 14 14 20 23 23 26 26 21 24 20 15
11 12 14 16 18 19 21 22 25 26 15 11 3 3 4 2 3 4 2 2 2 0 2 4 5 6 7 6 11 20 10 9 8 8 10 3 16 20 24 24 24 26 26 27 24 29 25
9 11 12 13 15 17 19 20 21 23 17 7 5 3 3 2 1 2 3 4 4 4 7 6 7 11 12 17 9 10 14 15 16 17 20 12 8 8 20 24 20 15 25 24 23 27 20
8 9 10 12 12 15 16 18 16 17 17 8 3 2 3 3 1 4 4 4 10 11 9 11 11 7 6 12 10 10 10 14 17 20 18 12 15 5 9 15 14 9 15 13 16 17 13
7 8 9 10 11 13 14 13 13 12 13 10 3 1 2 2 4 9 11 10 6 7 11 11 16 12 10 5 7 7 5 5 6 10 10 11 3 5 5 10 18 17 6 9 13 12 12
7 7 8 9 9 10 11 12 10 12 13 11 6 3 2 2 4 6 4 2 5 9 11 7 8 19 5 4 3 6 7 14 5 8 1 2 5 3 10 11 10 13 13 9 8 8 10
7 7 8 9 9 9 10 10 10 9 10 9 5 4 3 2 5 5 6 3 2 8 8 12 9 4 1 4 7 6 8 5 5 6 11 4 4 8 7 5 10 12 4 1 5 8 14
7 7 8 9 10 10 10 11 11 10 9 10 7 7 5 3 9 13 15 12 7 5 9 8 8 2 1 2 3 4 3 4 4 6 3 6 3 8 4 4 10 0 11 8 9 12 18
10 9 10 10 10 10 10 13 13 12 12 12 9 7 7 8 7 27 30 29 24 30 12 6 9 12 4 3 2 2 3 5 9 20 5 7 8 7 7 9 12 22 19 20 17 14 16
Wind_Direction
41 41 40 38 34 30 29 35 54 48 51 55 55 48 44 42 32 17 12 356 341 337 342 341 342 341 334 329 253 211 203 181 194 239 237 64 75 124 203 232 274 218 266 222 242 254 255
42 43 43 41 39 34 26 24 59 70 56 43 41 40 36 31 18 8 357 343 331 330 333 338 341 345 3 278 285 192 191 198 195 205 259 149 186 188 277 261 177 243 232 259 250 237 262
45 43 39 40 41 42 39 32 38 56 64 69 55 33 22 14 4 353 340 324 312 311 318 325 332 346 326 241 260 211 200 223 235 223 335 15 264 123 326 285 277 280 269 309 240 221 245
37 40 42 44 42 38 35 35 40 37 19 359 353 354 348 344 338 331 324 309 291 280 286 300 319 328 250 296 252 216 228 255 258 235 251 290 289 208 188 301 0 235 57 268 277 178 248
37 36 36 40 42 39 35 31 30 33 38 21 351 332 323 321 320 320 315 301 279 265 272 283 317 68 273 316 247 250 232 242 255 260 261 284 83 209 9 106 353 342 238 220 308 201 160
32 31 30 29 28 28 28 27 27 30 31 25 14 354 334 325 326 329 333 316 271 255 231 254 148 20 284 254 230 210 202 223 341 35 6 46 48 158 37 114 226 207 229 249 230 253 207
31 27 25 23 22 22 22 24 26 25 25 26 22 6 345 333 332 344 3 48 20 0 160 204 217 223 310 307 165 165 164 148 67 63 188 319 119 222 206 208 174 194 214 240 248 237 185
30 28 25 22 20 18 17 14 13 12 11 10 12 10 353 333 331 339 32 81 166 202 306 263 237 276 274 317 317 244 167 140 137 204 183 7 247 255 193 237 253 264 254 254 285 263 197
28 27 26 24 20 17 16 15 11 2 356 354 355 358 355 333 326 65 86 99 335 324 300 293 208 184 222 170 233 262 146 147 184 211 189 183 232 112 193 236 223 244 243 255 252 316 245
26 22 21 20 19 19 18 16 12 5 355 347 343 349 354 353 128 42 92 359 328 282 46 283 291 338 118 127 242 222 182 150 208 244 213 235 266 255 229 214 196 250 214 240 259 245 265
29 26 21 19 17 18 18 16 14 9 356 346 344 339 354 16 353 60 352 335 321 143 347 59 348 312 32 150 317 291 197 111 220 215 134 239 261 246 241 237 194 242 216 212 217 212 360
28 26 23 19 17 18 17 15 13 9 357 352 347 334 343 5 11 16 337 326 32 41 272 61 61 8 16 319 304 343 93 42 224 253 222 248 202 221 214 225 208 269 191 17 65 106 242
24 22 20 18 16 17 16 13 11 9 2 5 349 334 356 25 18 346 339 49 30 132 338 16 44 338 266 268 275 202 181 188 221 295 268 314 233 236 214 250 198 157 98 284 281 172 248
23 19 15 15 15 15 15 13 10 8 6 3 22 80 77 39 320 329 5 51 179 354 353 8 337 316 219 22 273 10 342 278 249 217 320 270 295 185 200 206 199 207 194 213 218 220 263
20 16 14 14 14 13 12 10 7 6 7 22 78 73 38 14 27 6 69 76 221 42 330 326 331 357 326 26 24 15 331 249 310 183 216 300 259 310 296 255 174 222 214 238 252 265 265
17 18 18 17 15 13 13 10 9 6 9 37 80 79 25 6 358 22 73 218 106 87 291 340 44 11 3 329 341 0 279 356 347 49 359 291 300 254 289 317 291 206 180 280 322 260 255
21 20 17 15 16 15 16 13 8 7 9 30 45 57 359 1 359 45 97 256 326 20 28 352 347 284 329 23 349 277 266 6 28 358 351 333 241 287 325 234 279 289 270 234 246 212 257
19 19 18 13 12 13 14 14 11 5 6 28 56 58 352 5 52 39 54 326 324 357 13 343 329 316 351 347 269 245 243 170 34 19 20 348 297 284 287 281 259 246 267 350 270 280 275
15 14 13 12 8 8 11 13 14 11 8 7 71 302 7 20 79 23 330 316 313 23 341 0 324 34 32 350 331 335 345 360 9 357 339 332 288 304 300 317 27 23 332 306 310 267 262
11 10 10 9 11 14 13 11 14 13 10 27 70 30 348 39 38 96 359 292 311 1 131 354 285 69 8 331 225 293 303 315 338 304 314 304 244 256 272 283 287 285 292 288 262 267 284
5 3 9 11 14 17 16 14 12 15 14 29 27 68 166 337 25 68 283 287 300 335 334 13 351 83 29 282 298 264 317 315 299 287 283 303 274 279 278 282 284 284 277 278 279 259 247
0 4 8 10 10 14 11 14 14 17 23 62 81 42 5 0 355 30 357 254 264 240 354 298 247 359 334 293 281 289 295 296 266 285 275 255 276 277 277 277 274 277 279 274 262 270 269
356 1 6 8 9 9 13 13 17 21 39 70 42 59 104 311 55 57 247 252 269 30 284 241 323 323 306 290 279 286 277 272 264 270 276 271 263 273 275 277 282 278 257 263 261 265 268
347 355 0 4 7 8 14 15 14 20 38 71 77 55 82 287 208 224 252 267 291 301 267 289 296 292 254 316 300 282 263 252 253 261 254 257 273 246 271 284 255 289 305 282 270 274 303
334 342 348 353 358 1 8 15 16 14 13 33 62 80 121 245 235 273 273 279 307 297 292 282 285 272 283 299 304 300 300 304 276 235 261 206 235 280 280 285 280 280 343 345 324 304 86
315 325 333 342 348 347 358 1 11 360 1 4 3 180 183 294 237 235 278 271 294 288 286 253 284 303 294 293 306 303 296 289 275 302 348 84 229 216 290 284 280 279 316 15 336 286 333
300 309 318 325 328 338 345 348 348 350 336 340 323 233 263 265 259 235 245 214 224 281 283 290 291 296 337 272 274 270 265 218 242 249 292 292 299 251 267 277 278 271 239 296 332 286 300
284 293 303 310 319 323 328 329 328 329 326 321 294 285 231 248 268 253 265 261 267 233 267 296 316 281 278 209 234 244 241 243 282 263 275 267 292 283 285 236 276 97 334 298 314 305 299
272 280 286 296 304 311 314 313 318 317 314 313 292 277 245 226 263 283 272 261 251 258 268 247 247 274 244 268 267 278 289 278 273 284 279 254 202 260 199 254 275 287 292 296 292 278 297